This is the latest recevied weather packets stored in our database for station/object HB9EKO-12. If no packets are shown the sender has not sent any weather packets the latest 10 day(s).
| Time | Temp. | Humidity | Pressure | Rain* | Wind** | Luminosity | Snow |
|---|---|---|---|---|---|---|---|
| 1777843968 | 16.67° C | 58% | 1016 hPa | - | - | - | - |
| 1777843063 | 16.67° C | 59% | 1016 hPa | - | - | - | - |
| 1777842158 | 16.67° C | 59% | 1016 hPa | - | - | - | - |
| 1777841253 | 16.67° C | 59% | 1016 hPa | - | - | - | - |
| 1777840347 | 16.11° C | 61% | 1016 hPa | - | - | - | - |
| 1777839442 | 16.11° C | 60% | 1016 hPa | - | - | - | - |
| 1777838537 | 16.67° C | 59% | 1016 hPa | - | - | - | - |
| 1777837632 | 16.11° C | 59% | 1016 hPa | - | - | - | - |
| 1777836727 | 16.11° C | 59% | 1016 hPa | - | - | - | - |
| 1777835821 | 16.11° C | 58% | 1016 hPa | - | - | - | - |
| 1777834916 | 16.11° C | 56% | 1016 hPa | - | - | - | - |
| 1777834011 | 16.11° C | 56% | 1016 hPa | - | - | - | - |
| 1777833106 | 16.11° C | 56% | 1016 hPa | - | - | - | - |
| 1777832200 | 16.11° C | 59% | 1015 hPa | - | - | - | - |
| 1777831295 | 16.11° C | 58% | 1015 hPa | - | - | - | - |
| 1777830390 | 16.67° C | 54% | 1015 hPa | - | - | - | - |
| 1777829485 | 17.22° C | 54% | 1015 hPa | - | - | - | - |
| 1777828579 | 16.67° C | 54% | 1015 hPa | - | - | - | - |
| 1777827674 | 17.22° C | 52% | 1015 hPa | - | - | - | - |
| 1777826769 | 17.78° C | 46% | 1016 hPa | - | - | - | - |
| 1777825864 | 18.33° C | 44% | 1016 hPa | - | - | - | - |
| 1777824958 | 18.89° C | 39% | 1015 hPa | - | - | - | - |
| 1777824053 | 19.44° C | 36% | 1015 hPa | - | - | - | - |
| 1777823148 | 20.56° C | 36% | 1015 hPa | - | - | - | - |
| 1777822243 | 21.67° C | 36% | 1014 hPa | - | - | - | - |
* Rain since midnight (hover to see other rain measurements)
** Current wind speed in m/s (hover to see current wind gust speed)